User: anonymous   Login
Location: Unspecified
(48.3300°N, 0.0000°E)
Time: 13:52:36
(UTC+00:00)
Language:

Envisat - Orbit

View from above orbital plane
View from above orbital plane
View from above satellite
View from above satellite

Ground track
Ground track

The orbit data is extracted from the following two-line orbital elements,

1 27386U 02009A   19177.10910368 -.00000010  00000-0  10260-4 0  9995
2 27386  98.1485 197.7565 0001278  94.0764 300.6346 14.37951322907264
Epoch (UTC): 26 June 2019 02:37:06
Eccentricity: 0.0001278
inclination: 98.1485°
perigee height: 764 km
apogee height: 766 km
right ascension of ascending node: 197.7565°
argument of perigee: 94.0764°
revolutions per day: 14.37951322
mean anomaly at epoch: 300.6346°
orbit number at epoch: 90726

The dashed part of the orbit path shows where the satellite is in the earth's shadow,  

DLR